Location: Altleiningen
(49.5078°N, 8.0741°E)
Time: 05:12:10
(UTC+00:00)

Lacrosse 4 Rocket - Pass Details

Date: 03 March 2021
Orbit: 537 x 620 km, 68.0° (Epoch: 11 April)

Event Time Altitude Azimuth Distance (km) Brightness Sun altitude
Rises 19:10:52 0° 190° (S) 2,821 4.9 -19.7°
Reaches altitude 10° 19:13:11 10° 183° (S) 1,937 4.0 -20.0°
Enters shadow 19:14:34 19° 173° (S) 1,450 3.2 -20.3°
